Regional Weather Roundup
Issued by NWS

Home | Current Version | Previous Version | Text Only | Print | Product List | Glossary Off
Versions: 1 2 3 4 5 6 7 8 9 10 11 12 13 14 15 16 17 18 19 20 21 22 23 24 25 26 27 28 29 30 31 32 33 34 35 36 37 38 39 40 41 42 43 44 45 46 47 48 49 50

000
ASUS45 KTFX 061910
RWRMT
MONTANA REGIONAL WEATHER ROUNDUP
NATIONAL WEATHER SERVICE GREAT FALLS MT
100 PM MDT MON JUL 06 2015

NOTE: "FAIR" INDICATES FEW OR NO CLOUDS BELOW 12000 FEET WITH NO
SIGNIFICANT WEATHER AND/OR OBSTRUCTIONS TO VISIBILITY.

MTZ001>007-043-062000-
WEST OF THE DIVIDE

CITY           SKY/WX    TMP DP  RH WIND       PRES   REMARKS
KALISPELL      CLEAR     72  39  30 SE3       30.15F
MISSOULA       SUNNY     75  46  35 CALM      30.13F
BUTTE          MOSUNNY   71  48  43 S8        30.20F
MULLAN PASS    SUNNY     66  38  35 CALM      30.26S
DEER LODGE       N/A     72  50  46 N6        30.21F
EUREKA           N/A     75  37  25 S6        30.13F
HAMILTON         N/A     72  52  49 NE3       30.11F
LIBBY            N/A     73  45  35 N3        30.12F
PLAINS           N/A     75  46  35 CALM      30.13F
RONAN            N/A     70  46  42 W3        30.20S
$$

MTZ008-052>055-062000-
SOUTHWEST MONTANA

CITY           SKY/WX    TMP DP  RH WIND       PRES   REMARKS
BOZEMAN        SUNNY     67  49  52 VRB5      30.21F
DILLON         SUNNY     70  52  52 VRB3      30.20F
W YELLOWSTONE  SUNNY     64  52  63 CALM      30.28F
THREE FORKS      N/A     67  64  90 N1        30.18F
TWIN BRIDGES     N/A     68  49  50 SW2       30.17F
$$

MTZ009-010-012-014-046-048-049-054-062000-
EAST SLOPES AND CENTRAL MONTANA

CITY           SKY/WX    TMP DP  RH WIND       PRES   REMARKS
CUT BANK       SUNNY     65  46  50 S12       30.18F
GREAT FALLS    MOSUNNY   66  49  54 VRB3      30.18F
MALMSTROM AFB  PTSUNNY   66  51  57 SE6G14    30.19F
HELENA         CLOUDY    64  48  56 CALM      30.20F
CONRAD           N/A     65  57  75 E3        30.20F
$$

MTZ011-013-016-021-045-047-050-051-062000-
NORTH CENTRAL MONTANA

CITY           SKY/WX    TMP DP  RH WIND       PRES   REMARKS
HAVRE          MOSUNNY   68  45  43 MISG      30.18F
LEWISTOWN      MOSUNNY   67  49  52 N3        30.22F
CHINOOK          N/A     70  46  43 E5        30.19F
FORT BENTON      N/A     66  48  52 NE3       30.19F
$$

MTZ017>020-022>027-061-062-062000-
NORTHEAST MONTANA

CITY           SKY/WX    TMP DP  RH WIND       PRES   REMARKS
GLASGOW        MOSUNNY   71  44  37 SW10      30.19F
JORDAN           N/A     71  47  42 VRB3      30.21F
SIDNEY         MOSUNNY   72  46  40 W8        30.19F
WOLF POINT     PTSUNNY   71  48  43 NW6       30.19F HAZE
MALTA            N/A     70  44  38 CALM      30.15F
PLENTYWOOD       N/A     66  48  52 N5        30.20S
POPLAR           N/A     70  48  46 CALM      30.20F
SCOBEY           N/A     67  45  45 NW6       30.18F
$$

MTZ028>42-056>058-062000-
SOUTHCENTRAL AND SOUTHEAST MONTANA

CITY           SKY/WX    TMP DP  RH WIND       PRES   REMARKS
BAKER          MOSUNNY   69  49  48 W14       30.22F
BILLINGS       MOSUNNY   68  49  50 E7        30.25F
LIVINGSTON     CLOUDY    66  49  54 MISG      30.23F
MILES CITY     CLOUDY    68  50  52 W6        30.22F
EKALAKA          N/A     65  48  53 N9        30.21S
FORSYTH          N/A     68  48  49 W5        30.22F
LAUREL           N/A     67  48  50 NE6       30.20F
ROUNDUP          N/A     66  45  46 CALM      30.13F
$$

REGIONAL REPORTS...DAKOTAS

CITY           SKY/WX    TMP DP  RH WIND       PRES   REMARKS
WILLISTON      PTSUNNY   67  50  54 N12       30.20S HAZE
MINOT          PTSUNNY   63  49  60 N8        30.17F
DICKINSON      CLOUDY    66  51  58 N15       30.17F
BEACH          FAIR      66  46  48 NW9G16    30.21F
CROSBY         FAIR      64  46  52 N5        30.21S
BISMARCK       CLOUDY    69  53  56 NE13      30.15F HAZE
GRAND FORKS    PTSUNNY   63  50  62 N13G21    30.10S
FARGO          MOSUNNY   68  48  48 N24       30.08S
BUFFALO SD       N/A     70  51  51 W9        30.16S
RAPID CITY     CLOUDY    68  54  60 NW9       30.23F
$$

REGIONAL REPORTS...WYOMING/IDAHO/WASHINGTON

CITY           SKY/WX    TMP DP  RH WIND       PRES   REMARKS
GILLETTE       PTSUNNY   63  51  65 VRB3      30.27F
SHERIDAN       CLOUDY    58  52  80 N3        30.28F
BUFFALO WY     CLOUDY    55  52  89 SE6       30.31S FOG
CODY           CLOUDY    63  52  67 SE6       30.27F
YELLOWSTONE LA   N/A     63  45  51 VRB5      30.37F
IDAHO FALLS    CLOUDY    64  58  80 S6        30.21S
SALMON         SUNNY     77  54  44 SW3       30.07F
BOISE          MOSUNNY   87  50  27 W6        30.06F
SPOKANE        MOSUNNY   81  44  27 NE8       30.06F
$$

REGIONAL REPORTS...ALBERTA

CITY           SKY/WX    TMP DP  RH WIND       PRES   REMARKS
EDMONTON       MOSUNNY   70  43  37 S9        30.08F
CALGARY        MOSUNNY   68  48  49 S13G18    30.10F
LETHBRIDGE     MOSUNNY   70  43  37 S15G22    30.14F
MEDICINE HAT   MOSUNNY   70  43  37 W3        30.16F
CARDSTON         N/A     70  48  46 SE7         N/A
ONEFOUR          N/A     66  41  39 SW5         N/A
$$

REGIONAL REPORTS...SASKATCHEWAN

CITY           SKY/WX    TMP DP  RH WIND       PRES   REMARKS
SWIFT CURRENT  SUNNY     66  46  48 SW8       30.18F
REGINA         MOSUNNY   68  43  40 W8        30.20S
SASKATOON      MOSUNNY   68  43  40 SW12      30.19F
CYPRESS HILLS    N/A     57  41  54 S8          N/A
VAL MARIE        N/A     68  45  42 N2          N/A
ASSINIBOIA       N/A     68  41  37 S12G20      N/A
$$



USA.gov is the U.S. government's official web portal to all federal, state and local government web resources and services.